CW5066 Weather Reports


time (UTC)temp
F
wind
direction
speed
knots
gust
knots
rain 1hr
in
rain 24hr
in
rain mn
in
humidity
%
barometer
mb
20260510132015 31 0.0 1.7 0.00 0.00 0.00 93 1025.2
20260510131016 31 0.0 0.9 0.00 0.00 0.00 93 1025.8
20260510130016 31 180 1.7 3.5 0.00 0.00 0.00 94 1025.7
20260510125016 32 0.0 0.0 0.00 0.00 0.00 94 1025.5
20260510124015 32 0.0 0.0 0.00 0.00 0.00 95 1026.2
20260510123036 32 0.0 0.0 0.00 0.00 0.00 95 1026.1
20260510122016 32 0.0 0.0 0.00 0.00 0.00 95 1025.9
20260510121015 32 0.0 0.0 0.00 0.00 0.00 95 1025.7
20260510120015 32 0.0 0.0 0.00 0.00 0.00 95 1025.6
20260510115015 32 0.0 0.0 0.00 0.00 0.00 95 1025.2
20260510114036 32 0.0 0.0 0.00 0.00 0.00 95 1025.8
20260510113015 32 0.0 0.0 0.00 0.00 0.00 95 1025.6
20260510112017 32 0.0 0.0 0.00 0.00 0.00 95 1025.6
20260510111017 32 0.0 1.7 0.00 0.00 0.00 95 1025.4
20260510110017 32 158 0.9 5.2 0.00 0.00 0.00 95 1025.4
20260510105017 32 158 0.9 1.7 0.00 0.00 0.00 95 1025.3
20260510104017 32 158 1.7 6.1 0.00 0.00 0.00 95 1025.2
20260510103017 32 158 1.7 4.3 0.00 0.00 0.00 95 1024.9
20260510102017 32 180 2.6 4.3 0.00 0.00 0.00 95 1024.8
20260510101017 32 180 1.7 4.3 0.00 0.00 0.00 95 1024.7
20260510100017 32 135 0.9 3.5 0.00 0.00 0.00 95 1024.5
20260510095017 32 135 3.5 7.0 0.00 0.00 0.00 95 1024.5
20260510094536 32 135 3.5 7.8 0.00 0.00 0.00 95 1025.0
20260510093516 33 0.0 0.9 0.00 0.00 0.00 95 1024.9
20260510092516 32 0.0 1.7 0.00 0.00 0.00 95 1024.8
20260510091516 33 315 1.7 4.3 0.00 0.00 0.00 95 1024.0
20260510090536 33 338 2.6 3.5 0.00 0.00 0.00 95 1023.8
20260510085516 33 315 1.7 3.5 0.00 0.00 0.00 95 1023.7
20260510084515 33 315 2.6 6.1 0.00 0.00 0.00 95 1024.2
20260510083536 33 315 3.5 5.2 0.00 0.00 0.00 95 1024.1
20260510082515 33 293 1.7 4.3 0.00 0.00 0.00 95 1024.1
20260510081516 33 293 3.5 7.0 0.00 0.00 0.00 95 1023.3
20260510080516 33 270 1.7 2.6 0.00 0.00 0.00 95 1023.3
20260510075515 33 270 1.7 6.1 0.00 0.00 0.00 94 1023.4
20260510074516 33 248 2.6 3.5 0.00 0.00 0.00 94 1023.5
20260510073516 33 248 1.7 3.5 0.00 0.00 0.00 94 1023.5
20260510072516 34 248 1.7 2.6 0.00 0.00 0.00 94 1023.7
20260510071515 34 248 2.6 4.3 0.00 0.00 0.00 94 1023.7
20260510070515 34 203 1.7 3.5 0.00 0.00 0.00 94 1023.8
20260510065515 34 0.0 1.7 0.00 0.00 0.00 94 1023.9
20260510064515 34 0.0 1.7 0.00 0.00 0.00 93 1023.2
20260510063535 34 203 0.9 2.6 0.00 0.00 0.00 93 1023.3
20260510062515 34 0.0 0.0 0.00 0.00 0.00 93 1023.2
20260510061515 34 0.0 1.7 0.00 0.00 0.00 93 1023.0
20260510060515 34 0.0 0.0 0.00 0.00 0.00 92 1022.9
20260510055536 34 0.0 0.0 0.00 0.00 0.00 92 1022.6
20260510054536 34 0.0 1.7 0.00 0.00 0.00 92 1022.4
20260510053516 34 0.0 1.7 0.00 0.00 0.00 92 1022.7
20260510052516 34 0.0 1.7 0.00 0.00 0.00 91 1022.7
20260510051557 35 180 1.7 3.5 0.00 0.00 0.00 91 1022.7
20260510050536 35 203 1.7 3.5 0.00 0.00 0.00 91 1022.7
20260510045536 35 203 1.7 3.5 0.00 0.00 0.00 90 1022.6
20260510044516 35 180 2.6 4.3 0.00 0.00 0.00 90 1022.0
20260510043536 35 180 2.6 5.2 0.00 0.00 0.00 90 1022.1
20260510042516 35 158 1.7 4.3 0.00 0.00 0.00 90 1022.0
20260510041536 35 158 2.6 7.0 0.00 0.00 0.00 90 1021.3
20260510040516 35 158 3.5 7.0 0.00 0.00 0.00 91 1021.0
20260510035516 35 135 3.5 7.0 0.00 0.00 0.00 91 1021.4
20260510034536 35 158 2.6 7.0 0.00 0.00 0.00 91 1021.9
20260510033515 35 158 2.6 7.8 0.00 0.00 0.00 91 1021.9
20260510032515 35 135 3.5 8.7 0.00 0.00 0.00 91 1021.5
20260510031536 35 135 3.5 7.0 0.00 0.00 0.00 91 1020.0
20260510030516 35 135 4.3 8.7 0.00 0.00 0.00 90 1019.9
20260510025515 36 135 5.2 11.3 0.00 0.00 0.00 89 1020.1
20260510024535 36 135 4.3 10.4 0.00 0.00 0.00 87 1019.4
20260510023515 37 135 4.3 9.6 0.00 0.00 0.00 85 1019.3
20260510022515 38 158 5.2 9.6 0.00 0.00 0.00 82 1018.8
20260510021515 38 158 6.1 12.2 0.00 0.00 0.00 78 1017.9
20260510020515 39 158 6.1 9.6 0.00 0.00 0.00 74 1018.1
20260510015515 42 180 6.1 10.4 0.00 0.00 0.00 67 1018.3
20260510014516 44 180 6.1 11.3 0.00 0.00 0.00 61 1018.7
20260510013535 48 203 6.1 13.9 0.00 0.00 0.00 53 1020.0
20260510012515 51 135 5.2 10.4 0.00 0.00 0.00 34 1020.0
20260510011515 53 90 5.2 13.0 0.00 0.00 0.00 16 1019.9
20260510010515 54 113 6.1 13.9 0.00 0.00 0.00 15 1019.8
20260510005515 54 68 3.5 10.4 0.00 0.00 0.00 16 1019.7
20260510004537 54 90 4.3 11.3 0.00 0.00 0.00 18 1020.0
20260510003517 54 113 4.3 10.4 0.00 0.00 0.00 19 1020.0
20260510002518 54 0 7.8 16.5 0.00 0.00 0.00 20 1019.9
20260510001517 55 68 6.1 17.4 0.00 0.00 0.00 19 1020.4
20260510000517 55 0 5.2 16.5 0.00 0.00 0.00 19 1020.2
20260509235517 55 0 7.0 17.4 0.00 0.00 0.00 19 1020.2
20260509234517 55 0 7.0 14.8 0.00 0.00 0.00 19 1020.7
20260509233517 56 68 4.3 13.0 0.00 0.00 0.00 20 1020.5
20260509232517 56 68 5.2 13.0 0.00 0.00 0.00 19 1020.6
20260509231517 56 0 6.1 13.9 0.00 0.00 0.00 19 1020.3
20260509230517 57 68 8.7 22.6 0.00 0.00 0.00 19 1021.0
20260509225537 57 0 7.0 14.8 0.00 0.00 0.00 20 1020.8
20260509224537 58 0 5.2 16.5 0.00 0.00 0.00 19 1021.6
20260509223517 57 0 4.3 12.2 0.00 0.00 0.00 19 1020.7
20260509222537 57 0 6.1 12.2 0.00 0.00 0.00 18 1020.9
20260509221517 58 0 6.1 13.0 0.00 0.00 0.00 17 1021.3
20260509220517 58 0 5.2 12.2 0.00 0.00 0.00 19 1021.6
20260509215516 59 68 5.2 17.4 0.00 0.00 0.00 18 1021.7
20260509214516 57 0 13.0 21.7 0.00 0.00 0.00 19 1021.0
20260509213517 58 0 7.8 17.4 0.00 0.00 0.00 19 1021.8
20260509212517 57 90 8.7 19.1 0.00 0.00 0.00 17 1021.1
20260509211517 58 68 7.8 20.0 0.00 0.00 0.00 20 1021.9
20260509210516 56 0 9.6 21.7 0.00 0.00 0.00 20 1021.3
20260509205516 57 0 8.7 15.6 0.00 0.00 0.00 20 1021.2
20260509204517 58 0 6.1 14.8 0.00 0.00 0.00 21 1021.5
20260509203516 57 0 8.7 18.2 0.00 0.00 0.00 21 1021.9
20260509202517 57 0 8.7 23.5 0.00 0.00 0.00 21 1021.5
20260509201556 58 0 6.1 15.6 0.00 0.00 0.00 24 1021.8
20260509200516 57 0 7.0 13.9 0.00 0.00 0.00 24 1021.9
20260509195517 57 0 5.2 14.8 0.00 0.00 0.00 25 1021.9
20260509194517 57 0 5.2 11.3 0.00 0.00 0.00 24 1022.0
20260509193516 57 45 7.0 17.4 0.00 0.00 0.00 25 1021.8
20260509192536 56 45 7.0 14.8 0.00 0.00 0.00 24 1022.1
20260509191516 55 0 7.0 13.0 0.00 0.00 0.00 25 1021.4
20260509190516 54 0 7.0 18.2 0.00 0.00 0.00 23 1020.9
20260509185557 54 90 9.6 18.2 0.00 0.00 0.00 25 1020.8
20260509184516 54 0 6.1 13.0 0.00 0.00 0.00 27 1021.6
20260509183556 54 0 8.7 16.5 0.00 0.00 0.00 25 1020.8
20260509182516 54 90 7.8 14.8 0.00 0.00 0.00 25 1021.4
20260509181516 53 45 6.1 13.9 0.00 0.00 0.00 27 1020.2
20260509180516 53 0 6.1 20.0 0.00 0.00 0.00 28 1020.3
20260509175516 52 0 7.0 16.5 0.00 0.00 0.00 28 1019.7
20260509174516 52 0 7.0 15.6 0.00 0.00 0.00 27 1019.7
20260509173516 51 0 6.1 14.8 0.00 0.00 0.00 26 1019.8
20260509172516 53 0 3.5 11.3 0.00 0.00 0.00 27 1020.5
20260509171516 52 0 2.6 7.8 0.00 0.00 0.00 28 1019.9
20260509170516 51 113 7.0 15.6 0.00 0.00 0.00 28 1019.9
20260509165536 51 113 8.7 25.2 0.00 0.00 0.00 28 1019.8
20260509164516 51 0 6.1 13.9 0.00 0.00 0.00 30 1019.7
20260509163516 51 68 7.0 15.6 0.00 0.00 0.00 31 1019.7
20260509162516 50 0 5.2 11.3 0.00 0.00 0.00 30 1019.5
20260509161516 50 0 4.3 13.0 0.00 0.00 0.00 31 1019.2
20260509160516 49 0 7.8 16.5 0.00 0.00 0.00 32 1018.5
20260509155516 49 0 7.8 15.6 0.00 0.00 0.00 33 1018.6
20260509154516 49 0 9.6 20.9 0.00 0.00 0.00 31 1018.3
20260509153515 48 0 7.8 16.5 0.00 0.00 0.00 31 1018.3
20260509152515 49 0 5.2 13.9 0.00 0.00 0.00 31 1018.7
20260509151515 49 0 3.5 9.6 0.00 0.00 0.00 34 1019.7
20260509150515 48 0 4.3 12.2 0.00 0.00 0.00 35 1018.9
20260509145516 47 0 2.6 8.7 0.00 0.00 0.00 37 1019.1
20260509144515 47 0 4.3 11.3 0.00 0.00 0.00 39 1019.2
20260509143515 46 0 4.3 12.2 0.00 0.00 0.00 40 1019.1
20260509142515 45 45 8.7 19.1 0.00 0.00 0.00 39 1018.4
20260509141516 45 45 6.1 13.9 0.00 0.00 0.00 39 1019.2
20260509140516 44 45 4.3 11.3 0.00 0.00 0.00 39 1018.4
20260509135535 44 68 4.3 11.3 0.00 0.00 0.00 39 1018.5
20260509134516 43 45 7.8 14.8 0.00 0.00 0.00 41 1018.5
20260509133516 42 45 5.2 9.6 0.00 0.00 0.00 43 1018.4